Tracking 25648 objects as of 18-May-2022
HD Live streaming from Space Station
objects crossing your sky now

SL-14 DEB

Track SL-14 DEB now!
10-day predictions


NORAD ID: 46466
Int'l Code: 1991-056DB
Perigee: 1,191.2 km
Apogee: 1,200.9 km
Inclination: 82.6 °
Period: 109.2 minutes
Semi major axis: 7567 km
RCS: Unknown
Launch date: August 15, 1991
Source: Commonwealth of Independent States (former USSR) (CIS)
Launch site: PLESETSK MISSILE AND SPACE COMPLEX (PKMTR)

Note: This is SATELLITE DEBRIS
aabbcc
Your satellite tracking list
Your tracking list is empty




NASA's NSSDC Master Catalog

Two Line Element Set (TLE):
1 46466U 91056DB  22137.63389620  .00001096  00000-0  27389-2 0  9996
2 46466  82.5697 112.7675 0006407  96.6938 263.4915 13.18911407 85831
Source of the keplerian elements: AFSPC